Location: Barcelona
(41.3830°N, 2.1830°E)
Time: 01:42:11
(UTC+02:00)

ISS - Pass Details

Date: 17 July 2019
Orbit: 409 x 418 km, 51.6° (Epoch: 23 July)

Event Time Altitude Azimuth Distance (km) Brightness Sun altitude
Rises 03:53:45 0° 309° (NW) 2,347 0.2 -21.8°
Reaches altitude 10° 03:56:10 10° 326° (NW) 1,481 -0.7 -21.6°
Maximum altitude 03:58:50 22° 19° (NNE) 962 -1.1 -21.3°
Drops below altitude 10° 04:01:29 10° 73° (ENE) 1,475 -0.3 -21.1°
Sets 04:03:53 0° 89° (E) 2,333 0.5 -20.8°
